Powrót do katalogu

STARLINK-32451

AktywnyŁącznośćVLEO
NORAD 61857·PAYLOAD·🇺🇸 United States

Wystrzelony Nov 7, 2024 z Cape Canaveral Space Force Station

Loading…

Następne Przeloty (najbliższe 24 godziny)

TLE

ŚwieżeSource: CelesTrak SupGP

Epoka: Sep 15, 2026, 02:39 UTC

1 61857C 24202N   26258.11090278 -.00023462  00000+0 -84993-3 0  2580
2 61857  43.0017 248.2195 0001219 264.6803 229.7511 15.27584776    17

Śledź STARLINK-32451 w czasie rzeczywistym z AllMySat

Download on the App Store